When you browse on this site, cookies collect data to enhance your experience and personalize the content and advertising you see.
Visit our Privacy Policy to learn more. By continuing to use the site, you agree to this use of cookies and data.
  • In Germany
  • List of Countries
  • For 7 days
  • Water Temperature
  • Weather Map
  • Weather Widgets
  • user-avatar
    Login

    Hourly Weather Podgornyy

    Today, 22 October, Tuesday

    Time Temperature Precipitation Wind Pressure Humidity
    00:00 0°C° 0 mm 3 mps 754 mmHg 94%
    01:00 -1°C° 0 mm 4 mps 753 mmHg 95%
    02:00 -1°C° 0.4 mm 4 mps 752 mmHg 95%
    03:00 0°C° 0.4 mm 5 mps 751 mmHg 95%
    04:00 +1°C° 0 mm 5 mps 751 mmHg 94%
    05:00 +1°C° 0.5 mm 5 mps 750 mmHg 93%
    06:00 +2°C° 0.5 mm 6 mps 748 mmHg 93%
    07:00 +3°C° 0.5 mm 6 mps 747 mmHg 93%
    08:00 +3°C° 1 mm 6 mps 747 mmHg 92%
    09:00 +4°C° 1 mm 6 mps 746 mmHg 90%
    10:00 +4°C° 1 mm 6 mps 746 mmHg 89%
    11:00 +5°C° 0.1 mm 6 mps 746 mmHg 88%
    12:00 +5°C° 0.1 mm 6 mps 746 mmHg 87%
    13:00 +6°C° 0.1 mm 5 mps 746 mmHg 85%
    14:00 +5°C° 0 mm 5 mps 746 mmHg 83%
    15:00 +3°C° 0 mm 5 mps 747 mmHg 80%
    16:00 +2°C° 0 mm 5 mps 747 mmHg 78%
    17:00 +3°C° 0 mm 4 mps 748 mmHg 80%
    18:00 +1°C° 0 mm 4 mps 748 mmHg 81%
    19:00 0°C° 0 mm 4 mps 749 mmHg 83%
    20:00 0°C° 0 mm 4 mps 749 mmHg 84%
    21:00 -1°C° 0 mm 4 mps 749 mmHg 85%
    22:00 0°C° 0 mm 3 mps 749 mmHg 86%
    23:00 0°C° 0 mm 3 mps 749 mmHg 87%

    Tomorrow, 23 October, Wednesday

    Time Temperature Precipitation Wind Pressure Humidity
    00:00 -1°C° 0 mm 3 mps 749 mmHg 87%
    01:00 -1°C° 0 mm 3 mps 749 mmHg 87%
    02:00 -1°C° 0 mm 3 mps 750 mmHg 86%
    03:00 -1°C° 0 mm 3 mps 750 mmHg 84%
    04:00 -2°C° 0 mm 3 mps 750 mmHg 83%
    05:00 -2°C° 0 mm 3 mps 750 mmHg 83%
    06:00 -2°C° 0 mm 3 mps 750 mmHg 84%
    07:00 -2°C° 0 mm 3 mps 750 mmHg 84%
    08:00 -2°C° 0 mm 3 mps 750 mmHg 81%
    09:00 -1°C° 0 mm 3 mps 750 mmHg 78%
    10:00 -1°C° 0 mm 3 mps 750 mmHg 74%
    11:00 0°C° 0 mm 3 mps 749 mmHg 73%
    12:00 0°C° 0 mm 4 mps 749 mmHg 72%
    13:00 0°C° 0 mm 4 mps 748 mmHg 71%
    14:00 0°C° 0 mm 4 mps 748 mmHg 74%
    15:00 0°C° 0 mm 4 mps 748 mmHg 76%
    16:00 -1°C° 0 mm 4 mps 747 mmHg 79%
    17:00 0°C° 0.1 mm 4 mps 747 mmHg 80%
    18:00 0°C° 0.1 mm 5 mps 746 mmHg 82%
    19:00 0°C° 0.1 mm 5 mps 745 mmHg 84%
    20:00 +1°C° 0.2 mm 5 mps 745 mmHg 85%
    21:00 +1°C° 0.2 mm 5 mps 744 mmHg 86%
    22:00 +2°C° 0.2 mm 5 mps 743 mmHg 87%
    23:00 +3°C° 0.1 mm 6 mps 743 mmHg 87%

    Day after tomorrow, 24 October, Thursday

    Time Temperature Precipitation Wind Pressure Humidity
    00:00 +3°C° 0.1 mm 6 mps 742 mmHg 86%
    01:00 +4°C° 0.1 mm 6 mps 742 mmHg 86%
    02:00 +4°C° 0.3 mm 6 mps 742 mmHg 87%
    03:00 +5°C° 0.3 mm 5 mps 743 mmHg 87%
    04:00 +5°C° 0.3 mm 4 mps 743 mmHg 88%
    05:00 +4°C° 0 mm 4 mps 744 mmHg 87%
    06:00 +3°C° 0 mm 4 mps 745 mmHg 87%
    07:00 +1°C° 0 mm 4 mps 745 mmHg 86%
    08:00 +1°C° 0 mm 4 mps 746 mmHg 83%
    09:00 +2°C° 0 mm 5 mps 746 mmHg 80%
    10:00 +2°C° 0 mm 5 mps 747 mmHg 77%
    11:00 +3°C° 0 mm 5 mps 747 mmHg 75%
    12:00 +3°C° 0 mm 5 mps 748 mmHg 73%
    13:00 +3°C° 0 mm 5 mps 748 mmHg 71%
    14:00 +4°C° 0 mm 4 mps 749 mmHg 73%
    15:00 +3°C° 0 mm 4 mps 749 mmHg 76%
    16:00 +2°C° 0 mm 3 mps 749 mmHg 78%
    17:00 +2°C° 0 mm 3 mps 750 mmHg 78%
    18:00 +2°C° 0 mm 3 mps 750 mmHg 78%
    19:00 +2°C° 0 mm 3 mps 751 mmHg 78%
    20:00 +2°C° 0 mm 3 mps 751 mmHg 80%
    21:00 +1°C° 0 mm 3 mps 751 mmHg 82%
    22:00 +1°C° 0 mm 3 mps 751 mmHg 84%
    23:00 +1°C° 0 mm 3 mps 751 mmHg 86%

    25 October, Friday

    Time Temperature Precipitation Wind Pressure Humidity
    00:00 0°C° 0 mm 3 mps 751 mmHg 88%
    01:00 0°C° 0 mm 3 mps 751 mmHg 90%
    02:00 0°C° 0 mm 3 mps 751 mmHg 90%
    03:00 0°C° 0 mm 3 mps 751 mmHg 90%
    04:00 -1°C° 0 mm 4 mps 751 mmHg 89%
    05:00 -1°C° 0 mm 4 mps 751 mmHg 88%
    06:00 -1°C° 0 mm 4 mps 751 mmHg 88%
    07:00 -1°C° 0 mm 4 mps 751 mmHg 87%
    08:00 0°C° 0 mm 4 mps 752 mmHg 85%
    09:00 0°C° 0 mm 4 mps 752 mmHg 84%
    10:00 +1°C° 0 mm 4 mps 752 mmHg 83%
    11:00 +1°C° 0 mm 4 mps 751 mmHg 86%
    12:00 +1°C° 0 mm 4 mps 751 mmHg 89%
    13:00 +1°C° 0 mm 4 mps 751 mmHg 92%
    14:00 +1°C° 0.1 mm 4 mps 751 mmHg 93%
    15:00 0°C° 0.1 mm 4 mps 751 mmHg 95%
    16:00 0°C° 0.1 mm 4 mps 751 mmHg 96%
    17:00 +1°C° 0.1 mm 4 mps 751 mmHg 95%
    18:00 +1°C° 0.1 mm 4 mps 751 mmHg 94%
    19:00 +1°C° 0.1 mm 4 mps 751 mmHg 92%
    20:00 +1°C° 0 mm 4 mps 751 mmHg 92%
    21:00 +1°C° 0 mm 4 mps 751 mmHg 91%
    22:00 +3°C° 0 mm 4 mps 750 mmHg 91%
    23:00 +3°C° 0.1 mm 4 mps 751 mmHg 90%

    26 October, Saturday

    Time Temperature Precipitation Wind Pressure Humidity
    00:00 +3°C° 0.1 mm 4 mps 751 mmHg 90%
    01:00 +3°C° 0.1 mm 4 mps 751 mmHg 89%
    02:00 +1°C° 0.1 mm 4 mps 752 mmHg 89%
    03:00 +2°C° 0.1 mm 3 mps 753 mmHg 88%
    04:00 +1°C° 0.1 mm 3 mps 753 mmHg 87%
    05:00 +1°C° 0 mm 2 mps 754 mmHg 87%
    06:00 -1°C° 0 mm 2 mps 754 mmHg 88%
    07:00 +1°C° 0 mm 1 mps 755 mmHg 88%
    08:00 +2°C° 0 mm 1 mps 755 mmHg 83%
    09:00 +2°C° 0 mm 1 mps 755 mmHg 78%
    10:00 +2°C° 0 mm 0 mps 756 mmHg 73%
    11:00 +4°C° 0 mm 1 mps 756 mmHg 75%
    12:00 +3°C° 0 mm 2 mps 755 mmHg 77%
    13:00 +3°C° 0 mm 3 mps 755 mmHg 80%
    14:00 +3°C° 0 mm 3 mps 755 mmHg 84%
    15:00 +3°C° 0 mm 3 mps 754 mmHg 88%
    16:00 +4°C° 0 mm 4 mps 754 mmHg 93%
    17:00 +4°C° 0.2 mm 4 mps 753 mmHg 90%
    18:00 +4°C° 0.2 mm 4 mps 753 mmHg 87%
    19:00 +3°C° 0.2 mm 5 mps 752 mmHg 85%
    20:00 +5°C° 0 mm 4 mps 752 mmHg 85%
    21:00 +5°C° 0 mm 4 mps 751 mmHg 86%
    22:00 +5°C° 0 mm 4 mps 751 mmHg 86%
    23:00 +6°C° 0 mm 5 mps 750 mmHg 86%

    27 October, Sunday

    Time Temperature Precipitation Wind Pressure Humidity
    00:00 +7°C° 0 mm 5 mps 750 mmHg 86%
    01:00 +7°C° 0 mm 5 mps 749 mmHg 86%
    02:00 +7°C° 0 mm 5 mps 749 mmHg 86%
    03:00 +7°C° 0 mm 5 mps 749 mmHg 86%
    04:00 +7°C° 0 mm 5 mps 749 mmHg 86%
    05:00 +7°C° 0 mm 5 mps 749 mmHg 85%
    06:00 +7°C° 0 mm 5 mps 748 mmHg 84%
    07:00 +7°C° 0 mm 6 mps 748 mmHg 82%
    08:00 +8°C° 0 mm 6 mps 748 mmHg 81%
    09:00 +8°C° 0 mm 5 mps 748 mmHg 80%
    10:00 +9°C° 0 mm 5 mps 748 mmHg 79%
    11:00 +9°C° 0 mm 5 mps 747 mmHg 77%
    12:00 +9°C° 0 mm 5 mps 747 mmHg 74%
    13:00 +10°C° 0 mm 5 mps 747 mmHg 72%
    14:00 +10°C° 0 mm 5 mps 746 mmHg 72%
    15:00 +9°C° 0 mm 5 mps 746 mmHg 72%
    16:00 +9°C° 0 mm 5 mps 745 mmHg 71%
    17:00 +9°C° 0 mm 5 mps 745 mmHg 73%
    18:00 +9°C° 0 mm 6 mps 745 mmHg 75%
    19:00 +9°C° 0 mm 6 mps 745 mmHg 77%
    20:00 +9°C° 0 mm 6 mps 744 mmHg 77%
    21:00 +9°C° 0 mm 6 mps 744 mmHg 77%
    22:00 +8°C° 0 mm 6 mps 744 mmHg 77%
    23:00 +8°C° 0 mm 6 mps 743 mmHg 77%

    28 October, Monday

    Time Temperature Precipitation Wind Pressure Humidity
    00:00 +8°C° 0 mm 6 mps 743 mmHg 76%
    01:00 +8°C° 0 mm 6 mps 742 mmHg 75%
    02:00 +8°C° 0 mm 6 mps 742 mmHg 75%
    03:00 +8°C° 0 mm 6 mps 742 mmHg 75%
    04:00 +8°C° 0 mm 6 mps 741 mmHg 75%
    05:00 +8°C° 0 mm 6 mps 741 mmHg 74%
    06:00 +8°C° 0 mm 7 mps 741 mmHg 74%
    07:00 +8°C° 0 mm 7 mps 740 mmHg 73%
    08:00 +8°C° 0 mm 7 mps 740 mmHg 73%
    09:00 +8°C° 0 mm 7 mps 740 mmHg 73%
    10:00 +9°C° 0 mm 6 mps 740 mmHg 73%
    11:00 +9°C° 0 mm 6 mps 740 mmHg 75%
    12:00 +9°C° 0 mm 6 mps 740 mmHg 76%
    13:00 +9°C° 0 mm 5 mps 740 mmHg 78%
    14:00 +8°C° 0.1 mm 5 mps 739 mmHg 81%
    15:00 +8°C° 0.1 mm 4 mps 739 mmHg 84%
    16:00 +7°C° 0.1 mm 4 mps 739 mmHg 87%
    17:00 +8°C° 0.6 mm 3 mps 739 mmHg 89%
    18:00 +7°C° 0.6 mm 3 mps 739 mmHg 90%
    19:00 +6°C° 0.6 mm 2 mps 739 mmHg 91%
    20:00 +6°C° 0.3 mm 2 mps 739 mmHg 90%
    21:00 +5°C° 0.3 mm 2 mps 739 mmHg 90%
    22:00 +5°C° 0.3 mm 2 mps 738 mmHg 89%
    23:00 +5°C° 0.2 mm 2 mps 738 mmHg 90%
    Show more